Vorticity
nan nan nan nan nan nan nan nan nan nan nan nan nan nan nan nan nan nan nan nan nan nan
nan 11 11 12 11 10 8 8 10 10 9 10 9 8 6 8 9 9 8 10 7 nan
nan 9 9 12 11 11 12 11 8 8 9 10 10 9 8 8 9 8 7 9 8 nan
nan 10 12 13 11 10 10 12 10 9 8 10 10 9 8 8 9 9 7 8 10 nan
nan 12 11 12 11 9 9 12 13 12 10 11 9 8 9 10 9 8 8 8 9 nan
nan 12 12 11 9 10 11 11 15 14 11 10 9 10 10 9 9 9 9 10 9 nan
nan 9 13 12 9 11 11 11 13 14 13 12 12 11 9 9 8 9 9 10 10 nan
nan 10 12 13 11 10 12 13 13 13 13 13 11 9 7 8 9 8 7 7 9 nan
nan 10 12 11 11 11 13 14 15 15 12 8 10 10 7 5 9 9 8 7 9 nan
nan 9 11 11 11 12 14 16 17 13 10 8 10 10 9 8 9 12 12 12 11 nan
nan 9 12 11 12 12 16 18 14 10 9 9 10 8 7 16 16 15 18 19 15 nan
nan 11 10 11 12 15 14 16 14 13 12 9 8 9 12 17 17 16 16 20 21 nan
nan 11 12 12 17 14 14 14 12 13 13 13 10 9 15 17 15 14 13 13 17 nan
nan nan nan nan nan nan nan nan nan nan nan nan nan nan nan nan nan nan nan nan nan nan
CAPE
5 11 10 4 0 0 0 0 0 0 1 0 0 0 0 1 0 0 0 0 0 12
5 6 0 16 0 0 0 0 0 0 0 0 1 0 0 0 0 0 0 0 0 0
2 2 3 1 3 17 40 0 0 0 0 0 0 1 2 6 10 6 5 1 0 0
1 1 1 10 12 5 5 11 3 0 0 0 1 0 5 5 6 8 14 15 20 9
3 2 1 15 3 3 3 3 4 0 0 0 0 0 0 0 3 0 0 0 7 31
6 2 1 9 1 2 1 2 15 0 0 0 0 0 0 0 0 0 0 0 0 0
10 5 7 6 2 2 1 7 11 10 0 0 0 0 0 0 0 0 0 0 0 4
11 5 1 8 7 2 2 4 7 2 0 0 0 0 0 0 0 0 0 0 0 0
16 10 7 3 6 2 2 4 5 0 0 0 0 0 0 2 3 2 1 1 0 0
16 11 10 2 4 3 2 4 0 0 0 0 0 0 0 0 2 1 0 0 1 0
8 8 10 4 4 5 2 3 0 0 0 0 0 0 0 0 0 1 1 1 0 3
6 7 8 4 5 5 3 0 0 0 0 0 0 0 0 0 0 1 0 0 0 1
6 6 7 4 6 6 1 0 0 0 0 0 0 0 0 0 0 0 0 0 0 0
3 6 7 2 10 2 1 0 0 0 0 0 0 1 1 0 0 0 1 1 1 1